Weather History for Banff, AB

Change the Weather History Date:

Monday, November 5, 2012

  Actual Average Record
Temperature  
Mean Temperature 42 °F -  
Max Temperature 51 °F - - ()
Min Temperature 34 °F - - ()
Degree Days  
Heating Degree Days 22    
Moisture  
Dew Point 24 °F    
Average Humidity 47    
Maximum Humidity 88    
Minimum Humidity 23    
Precipitation  
Precipitation 0.00 in - - ()
Sea Level Pressure  
Sea Level Pressure 30.05 in    
Wind  
Wind Speed 6 mph ()    
Max Wind Speed 14 mph    
Max Gust Speed 30 mph    
T = Trace of Precipitation, MM = Missing Value Source: Averaged Metar Reports

Daily Weather History Graph

Daily Weather History Graph

Search for Another Location

Airport:

Trip Planner

Search our weather history database for the weather conditions in past years. The results will help you decide how hot, cold, wet, or windy it might be!

Date:

Astronomy

Nov. 05, 2012 Rise Set
Actual Time 7:42 AM MST 5:07 PM MST
Civil Twilight 7:07 AM MST 5:43 PM MST
Nautical Twilight 6:27 AM MST 6:22 PM MST
Astronomical Twilight 5:49 AM MST 7:01 PM MST
Moon 10:51 PM MST (11/5) 1:05 PM MST (11/5)
Length of Visible Light 10h 35m
Length of Day
9h 24m
Waning Gibbous, 62% of the Moon is Illuminated
Nov 5
Waning Gibbous
Nov 6
Last Quarter
Nov 13
New
Nov 20
First Quarter
Nov 28
Full

Hourly Weather History & Observations

Time (MST) Temp. Windchill Dew Point Humidity Pressure Visibility Wind Dir Wind Speed Gust Speed Precip Events Conditions
12:00 AM 44.8 °F 41.0 °F 36.5 °F 73% 30.03 in - WSW 6.9 mph - N/A   Unknown
1:00 AM 44.4 °F 40.0 °F 37.2 °F 76% 30.00 in - WSW 8.1 mph - N/A   Unknown
2:00 AM 42.1 °F 37.7 °F 38.8 °F 88% 29.97 in - WSW 6.9 mph - N/A   Unknown
3:00 AM 44.1 °F 40.8 °F 38.5 °F 81% 29.90 in - SW 5.8 mph - N/A   Unknown
4:00 AM 43.2 °F 39.7 °F 39.2 °F 86% 29.89 in - SW 5.8 mph - N/A   Unknown
5:00 AM 44.4 °F 41.2 °F 36.7 °F 74% 29.90 in - SW 5.8 mph - N/A   Unknown
6:00 AM 46.9 °F - 31.6 °F 55% 29.89 in - WSW 8.1 mph - N/A   Unknown
7:00 AM 48.2 °F - 28.4 °F 46% 29.90 in - WSW 5.8 mph - N/A   Unknown
8:00 AM 49.3 °F - 26.8 °F 42% 29.91 in - WSW 9.2 mph 20.7 mph N/A   Unknown
9:00 AM 50.0 °F - 22.1 °F 33% 29.93 in - WSW 13.8 mph 29.9 mph N/A   Unknown
10:00 AM 49.1 °F - 22.3 °F 35% 29.95 in - WSW 9.2 mph 18.4 mph N/A   Unknown
11:00 AM 47.1 °F - 29.1 °F 50% 30.01 in - WSW 11.5 mph 21.9 mph N/A   Unknown
12:00 PM 49.8 °F - 19.0 °F 30% 30.03 in - West 9.2 mph 23.0 mph N/A   Unknown
1:00 PM 51.4 °F - 14.7 °F 23% 30.04 in - West 9.2 mph 23.0 mph N/A   Unknown
2:00 PM 51.4 °F - 15.6 °F 24% 30.07 in - West 6.9 mph - N/A   Unknown
3:00 PM 50.5 °F - 14.7 °F 24% 30.09 in - WNW 4.6 mph - N/A   Unknown
4:00 PM 48.4 °F - 14.0 °F 25% 30.13 in - West 4.6 mph - N/A   Unknown
5:00 PM 45.3 °F 42.3 °F 12.4 °F 26% 30.15 in - West 5.8 mph - N/A   Unknown
6:00 PM 42.8 °F 39.3 °F 12.7 °F 30% 30.17 in - WSW 5.8 mph - N/A   Unknown
7:00 PM 40.1 °F 35.3 °F 13.6 °F 34% 30.19 in - WSW 6.9 mph - N/A   Unknown
8:00 PM 36.7 °F 34.1 °F 15.1 °F 41% 30.23 in - West 3.5 mph - N/A   Unknown
9:00 PM 35.8 °F 31.9 °F 15.6 °F 44% 30.24 in - WSW 4.6 mph - N/A   Unknown
10:00 PM 34.3 °F 30.2 °F 16.2 °F 47% 30.25 in - WSW 4.6 mph - N/A   Unknown
11:00 PM 35.8 °F 30.1 °F 16.5 °F 46% 30.24 in - West 6.9 mph - N/A   Unknown